Location: Diebersbach
(48.5163°N, 8.0558°E)
Time: 13:08:58
(UTC+00:00)

Resurs 1-4 Rocket - Pass Details

Date: 20 June 2021
Orbit: 800 x 813 km, 98.6° (Epoch: 29 July)

Event Time Altitude Azimuth Distance (km) Brightness Sun altitude
Rises 01:12:47 0° 14° (NNE) 3,344 7.1 -14.4°
Reaches altitude 10° 01:15:08 10° 15° (NNE) 2,410 5.9 -14.3°
Maximum altitude 01:20:29 90° 81° (E) 820 2.1 -13.9°
Enters shadow 01:24:23 19° 196° (SSW) 1,842 3.3 -13.6°
